Satellite-Ground Cal/Val Site Overpasses Predictions

Prediction of Satellite NPP Overpassing Cal/Val Site: Antarctic Dome C

Ground Cal/Val Site Location: Latitude: -75.10, Longitude: 123.35; Satellite-Ground Site NADIR distance within 100 km.

Table of predicted overpasses for the next 14.0 days since TLE Epoch: 2/24/2024
Interval Starting Time Ending Time Minimum Distance Time Minimum Distance (km)
1 02/24/2024 14:42:52 02/24/2024 14:43:18 02/24/2024 14:43:05 50.04
2 02/25/2024 07:44:33 02/25/2024 07:44:54 02/25/2024 07:44:44 71.31
3 02/26/2024 07:25:39 02/26/2024 07:26:07 02/26/2024 07:25:53 36.68
4 02/28/2024 15:08:05 02/28/2024 15:08:12 02/28/2024 15:08:08 96.52
5 02/29/2024 14:49:03 02/29/2024 14:49:32 02/29/2024 14:49:18 14.85
6 03/02/2024 07:31:51 03/02/2024 07:32:20 03/02/2024 07:32:06 1.86
7 03/05/2024 14:55:16 03/05/2024 14:55:44 03/05/2024 14:55:30 21.15
8 03/06/2024 14:36:32 03/06/2024 14:36:47 03/06/2024 14:36:39 85.92
9 03/07/2024 07:38:04 03/07/2024 07:38:31 03/07/2024 07:38:18 35.12
